Regional Weather Roundup
Issued by NWS

Home | Current Version | Previous Version | Graphics & Text | Print | Product List | Glossary On
Versions: 1 2 3 4 5 6 7 8 9 10 11 12 13 14 15 16 17 18 19 20 21 22 23 24 25 26 27
000
ASUS45 KSLC 291210
RWRUT

UTAH REGIONAL WEATHER ROUNDUP
NATIONAL WEATHER SERVICE SALT LAKE CITY UT
600 AM MDT MON AUG 29 2016

UTZ001>011-023>025-291300-

NORTHERN UTAH

CITY           SKY/WX    TMP DP  RH WIND       PRES   REMARKS
BRIGHAM CITY     N/A     56  38  50 CALM      30.21S
HILL AFB       CLEAR     62  32  32 E20       30.22R
LOGAN          CLEAR     48  41  76 NE3       30.25R
OGDEN          CLEAR     62  33  33 S5        30.20R
PROVO AIRPORT  CLEAR     57  34  41 SE5       30.23R
SALT LAKE CITY CLEAR     63  39  41 S8        30.19R
VERNAL         CLEAR     53  43  68 W6        30.26R
WENDOVER       PTCLDY    63  34  34 W5        30.21R
HEBER CITY     CLEAR     43  34  70 CALM      30.32R
WEST JORDAN    CLEAR     60  35  37 CALM      30.22R

$$

UTZ012>022-026-027-291300-

SOUTHERN/CENTRAL UTAH

CITY           SKY/WX    TMP DP  RH WIND       PRES   REMARKS
BLANDING       PTCLDY    55  41  58 E5        30.37R
BRYCE CANYON   CLEAR     41  38  89 CALM      30.41S
CEDAR CITY     CLEAR     49  40  71 NE3       30.27S
MILFORD        CLEAR     52  36  54 S6        30.24R
MOAB/CYNLANDS  CLEAR     64  43  46 SE9       30.20R
PRICE          CLEAR     56  36  47 N3        30.29S
ST GEORGE      SUNNY     66  54  63 CALM      30.12S

$$

REGIONAL REPORTS     COLORADO/ARIZONA

CITY           SKY/WX    TMP DP  RH WIND       PRES   REMARKS
CRAIG, CO      CLOUDY    41  36  82 W5        30.35R
GRAND JUNCTION CLEAR     56  45  66 SE9       30.27R
RIFLE          PTCLDY    53  49  86 S3        30.32S
MONTROSE       CLOUDY    52  44  74 S8        30.34R
CORTEZ         CLOUDY    50  43  77 SE7       30.31R
PAGE, AZ       CLEAR     68  49  50 N5        30.17R
GRAND CANYON   CLEAR     46  43  89 E3        30.33S
KINGMAN        CLEAR     63  54  72 SE7       30.10S
FLAGSTAFF      CLEAR     42  41  96 NE3       30.34S

$$

REGIONAL REPORTS    NEVADA/IDAHO/WYOMING

CITY           SKY/WX    TMP DP  RH WIND       PRES   REMARKS
LAS VEGAS, NV  CLEAR     78  47  33 W5        29.99R
ELY            PTCLDY    45  27  49 S8        30.33S
ELKO           CLEAR     52  28  39 NE3       30.25R
POCATELLO, ID  CLEAR     50  38  63 CALM      30.24R
BURLEY         PTCLDY    47  42  83 CALM      30.19R
EVANSTON, WY   CLOUDY    56  29  35 SE7       30.41R
ROCK SPRINGS   CLOUDY    52  26  36 SW7       30.37R

$$




USA.gov is the U.S. government's official web portal to all federal, state and local government web resources and services.